Time,TemperatureF,DewpointF,PressureIn,WindDirection,WindDirectionDegrees,WindSpeedMPH,WindSpeedGustMPH,Humidity,HourlyPrecipIn,Conditions,Clouds,dailyrainin,SoftwareType,DateUTC
2013-04-30 00:01:00,47.0,23.0,-100.00,WSW,245,12.0,19.0,38,-99.99,,,-99.99,,2013-04-30 06:01:00,
2013-04-30 00:11:00,47.0,23.0,-100.00,WSW,245,13.0,22.0,38,-99.99,,,-99.99,,2013-04-30 06:11:00,
2013-04-30 00:21:00,48.0,24.0,-100.00,WSW,250,19.0,24.0,38,-99.99,,,-99.99,,2013-04-30 06:21:00,
2013-04-30 00:31:00,48.0,24.0,-100.00,West,260,16.0,24.0,37,-99.99,,,-99.99,,2013-04-30 06:31:00,
2013-04-30 00:41:00,48.0,24.0,-100.00,West,265,19.0,24.0,37,-99.99,,,-99.99,,2013-04-30 06:41:00,
2013-04-30 00:52:00,48.0,24.0,-100.00,West,275,14.0,22.0,38,-99.99,,,-99.99,,2013-04-30 06:52:00,
2013-04-30 01:01:00,48.0,24.0,-100.00,West,270,16.0,22.0,38,-99.99,,,-99.99,,2013-04-30 07:01:00,
2013-04-30 01:11:00,48.0,24.0,-100.00,West,280,16.0,21.0,38,-99.99,,,-99.99,,2013-04-30 07:11:00,
2013-04-30 01:21:00,47.0,24.0,-100.00,WNW,290,13.0,21.0,38,-99.99,,,-99.99,,2013-04-30 07:21:00,
2013-04-30 01:31:00,47.0,23.0,-100.00,WNW,285,13.0,19.0,39,-99.99,,,-99.99,,2013-04-30 07:31:00,
2013-04-30 01:41:00,46.0,23.0,-100.00,West,280,12.0,16.0,39,-99.99,,,-99.99,,2013-04-30 07:41:00,
2013-04-30 01:52:00,46.0,23.0,-100.00,WNW,290,10.0,14.0,40,-99.99,,,-99.99,,2013-04-30 07:52:00,
2013-04-30 02:02:00,47.0,24.0,-100.00,West,275,15.0,20.0,40,-99.99,,,-99.99,,2013-04-30 08:02:00,
2013-04-30 02:11:00,47.0,24.0,-100.00,WNW,285,16.0,21.0,40,-99.99,,,-99.99,,2013-04-30 08:11:00,
2013-04-30 02:21:00,47.0,24.0,-100.00,West,275,15.0,26.0,40,-99.99,,,-99.99,,2013-04-30 08:21:00,
2013-04-30 02:32:00,47.0,24.0,-100.00,West,280,16.0,22.0,41,-99.99,,,-99.99,,2013-04-30 08:32:00,
2013-04-30 02:52:00,45.0,24.0,-100.00,WNW,285,13.0,20.0,42,-99.99,,,-99.99,,2013-04-30 08:52:00,
2013-04-30 03:01:00,46.0,25.0,-100.00,WNW,290,13.0,20.0,43,-99.99,,,-99.99,,2013-04-30 09:01:00,
2013-04-30 03:11:00,45.0,24.0,-100.00,WNW,290,12.0,20.0,44,-99.99,,,-99.99,,2013-04-30 09:11:00,
2013-04-30 03:22:00,44.0,25.0,-100.00,West,280,13.0,17.0,46,-99.99,,,-99.99,,2013-04-30 09:22:00,
2013-04-30 03:33:00,45.0,25.0,-100.00,West,275,15.0,21.0,46,-99.99,,,-99.99,,2013-04-30 09:33:00,
2013-04-30 03:43:00,45.0,25.0,-100.00,West,280,16.0,19.0,45,-99.99,,,-99.99,,2013-04-30 09:43:00,
2013-04-30 03:52:00,44.0,25.0,-100.00,WNW,285,14.0,19.0,45,-99.99,,,-99.99,,2013-04-30 09:52:00,
2013-04-30 04:03:00,44.0,25.0,-100.00,West,280,12.0,19.0,46,-99.99,,,-99.99,,2013-04-30 10:03:00,
2013-04-30 04:11:00,44.0,25.0,-100.00,West,275,14.0,18.0,46,-99.99,,,-99.99,,2013-04-30 10:11:00,
2013-04-30 04:22:00,44.0,25.0,-100.00,West,270,12.0,18.0,46,-99.99,,,-99.99,,2013-04-30 10:22:00,
2013-04-30 04:32:00,44.0,25.0,-100.00,West,265,12.0,17.0,46,-99.99,,,-99.99,,2013-04-30 10:32:00,
2013-04-30 04:41:00,44.0,24.0,-100.00,West,265,11.0,17.0,46,-99.99,,,-99.99,,2013-04-30 10:41:00,
2013-04-30 04:52:00,43.0,24.0,-100.00,West,270,9.0,16.0,47,-99.99,,,-99.99,,2013-04-30 10:52:00,
2013-04-30 05:02:00,42.0,24.0,-100.00,West,280,9.0,13.0,48,-99.99,,,-99.99,,2013-04-30 11:02:00,
2013-04-30 05:11:00,42.0,24.0,-100.00,West,265,9.0,12.0,49,-99.99,,,-99.99,,2013-04-30 11:11:00,
2013-04-30 05:21:00,42.0,25.0,-100.00,West,265,11.0,14.0,50,-99.99,,,-99.99,,2013-04-30 11:21:00,
2013-04-30 05:31:00,42.0,25.0,-100.00,West,260,12.0,15.0,51,-99.99,,,-99.99,,2013-04-30 11:31:00,
2013-04-30 05:51:00,41.0,25.0,-100.00,West,270,11.0,17.0,52,-99.99,,,-99.99,,2013-04-30 11:51:00,
2013-04-30 06:01:00,42.0,26.0,-100.00,West,270,11.0,16.0,52,-99.99,,,-99.99,,2013-04-30 12:01:00,
2013-04-30 06:11:00,41.0,26.0,-100.00,West,270,11.0,16.0,53,-99.99,,,-99.99,,2013-04-30 12:11:00,
2013-04-30 06:21:00,40.0,26.0,-100.00,West,265,11.0,13.0,56,-99.99,,,-99.99,,2013-04-30 12:21:00,
2013-04-30 06:31:00,41.0,27.0,-100.00,West,270,12.0,14.0,57,-99.99,,,-99.99,,2013-04-30 12:31:00,
2013-04-30 06:41:00,41.0,27.0,-100.00,West,265,11.0,14.0,57,-99.99,,,-99.99,,2013-04-30 12:41:00,
2013-04-30 06:51:00,41.0,28.0,-100.00,West,265,10.0,13.0,57,-99.99,,,-99.99,,2013-04-30 12:51:00,
2013-04-30 07:01:00,42.0,29.0,-100.00,West,265,9.0,12.0,58,-99.99,,,-99.99,,2013-04-30 13:01:00,
2013-04-30 07:11:00,43.0,29.0,-100.00,West,265,11.0,14.0,57,-99.99,,,-99.99,,2013-04-30 13:11:00,
2013-04-30 07:21:00,44.0,30.0,-100.00,West,260,9.0,15.0,57,-99.99,,,-99.99,,2013-04-30 13:21:00,
2013-04-30 07:31:00,45.0,31.0,-100.00,West,275,10.0,14.0,57,-99.99,,,-99.99,,2013-04-30 13:31:00,
2013-04-30 07:41:00,45.0,31.0,-100.00,WNW,285,9.0,14.0,56,-99.99,,,-99.99,,2013-04-30 13:41:00,
2013-04-30 07:51:00,46.0,31.0,-100.00,WNW,290,12.0,16.0,55,-99.99,,,-99.99,,2013-04-30 13:51:00,
2013-04-30 08:02:00,47.0,31.0,-100.00,WNW,290,12.0,17.0,54,-99.99,,,-99.99,,2013-04-30 14:02:00,
2013-04-30 08:11:00,47.0,31.0,-100.00,WNW,295,12.0,18.0,53,-99.99,,,-99.99,,2013-04-30 14:11:00,
2013-04-30 08:21:00,47.0,31.0,-100.00,WNW,295,12.0,18.0,52,-99.99,,,-99.99,,2013-04-30 14:21:00,
2013-04-30 08:31:00,47.0,31.0,-100.00,WNW,295,16.0,19.0,51,-99.99,,,-99.99,,2013-04-30 14:31:00,
2013-04-30 08:41:00,48.0,31.0,-100.00,WNW,295,15.0,19.0,51,-99.99,,,-99.99,,2013-04-30 14:41:00,
2013-04-30 08:52:00,46.0,30.0,-100.00,WNW,295,14.0,19.0,51,-99.99,,,-99.99,,2013-04-30 14:52:00,
2013-04-30 09:01:00,48.0,31.0,-100.00,WNW,300,16.0,19.0,51,-99.99,,,-99.99,,2013-04-30 15:01:00,
2013-04-30 09:11:00,48.0,31.0,-100.00,NW,310,12.0,19.0,51,-99.99,,,-99.99,,2013-04-30 15:11:00,
2013-04-30 09:21:00,41.0,31.0,-100.00,SE,135,15.0,17.0,66,-99.99,,,-99.99,,2013-04-30 15:21:00,
2013-04-30 09:32:00,38.0,33.0,-100.00,SSE,160,11.0,17.0,81,-99.99,,,-99.99,,2013-04-30 15:32:00,
2013-04-30 09:42:00,38.0,34.0,-100.00,SSE,155,11.0,16.0,85,-99.99,,,-99.99,,2013-04-30 15:42:00,
2013-04-30 09:52:00,34.0,34.0,-100.00,SE,140,14.0,21.0,99,-99.99,,,-99.99,,2013-04-30 15:52:00,
2013-04-30 10:02:00,34.0,34.0,-100.00,SE,145,13.0,21.0,99,-99.99,,,-99.99,,2013-04-30 16:02:00,
2013-04-30 10:12:00,34.0,34.0,-100.00,SSE,155,11.0,20.0,99,-99.99,,,-99.99,,2013-04-30 16:12:00,
2013-04-30 10:22:00,33.0,33.0,-100.00,SSE,150,15.0,22.0,99,-99.99,,,-99.99,,2013-04-30 16:22:00,
2013-04-30 10:33:00,33.0,33.0,-100.00,SE,135,17.0,21.0,99,-99.99,,,-99.99,,2013-04-30 16:33:00,
2013-04-30 10:42:00,33.0,33.0,-100.00,SE,135,17.0,21.0,99,-99.99,,,-99.99,,2013-04-30 16:42:00,
2013-04-30 10:52:00,33.0,33.0,-100.00,SE,135,19.0,23.0,99,-99.99,,,-99.99,,2013-04-30 16:52:00,
2013-04-30 11:02:00,32.0,32.0,-100.00,SE,130,21.0,27.0,99,-99.99,,,-99.99,,2013-04-30 17:02:00,
2013-04-30 11:12:00,32.0,32.0,-100.00,SE,145,19.0,26.0,99,-99.99,,,-99.99,,2013-04-30 17:12:00,
2013-04-30 11:22:00,32.0,32.0,-100.00,SE,140,19.0,24.0,99,-99.99,,,-99.99,,2013-04-30 17:22:00,
2013-04-30 11:32:00,32.0,32.0,-100.00,SE,135,18.0,23.0,99,-99.99,,,-99.99,,2013-04-30 17:32:00,
2013-04-30 11:42:00,32.0,32.0,-100.00,SE,130,18.0,24.0,99,-99.99,,,-99.99,,2013-04-30 17:42:00,
2013-04-30 11:52:00,32.0,32.0,-100.00,SE,125,15.0,20.0,99,-99.99,,,-99.99,,2013-04-30 17:52:00,
2013-04-30 12:01:00,32.0,32.0,-100.00,SE,125,17.0,21.0,99,-99.99,,,-99.99,,2013-04-30 18:01:00,
2013-04-30 12:11:00,33.0,33.0,-100.00,SE,135,11.0,19.0,99,-99.99,,,-99.99,,2013-04-30 18:11:00,
2013-04-30 12:22:00,33.0,33.0,-100.00,SE,140,16.0,21.0,99,-99.99,,,-99.99,,2013-04-30 18:22:00,
2013-04-30 12:32:00,33.0,33.0,-100.00,SE,135,16.0,21.0,99,-99.99,,,-99.99,,2013-04-30 18:32:00,
2013-04-30 12:41:00,33.0,33.0,-100.00,SE,140,12.0,18.0,99,-99.99,,,-99.99,,2013-04-30 18:41:00,
2013-04-30 12:51:00,33.0,33.0,-100.00,ESE,110,12.0,20.0,99,-99.99,,,-99.99,,2013-04-30 18:51:00,
2013-04-30 13:01:00,33.0,33.0,-100.00,ESE,120,13.0,16.0,99,-99.99,,,-99.99,,2013-04-30 19:01:00,
2013-04-30 13:11:00,33.0,33.0,-100.00,SE,140,13.0,17.0,99,-99.99,,,-99.99,,2013-04-30 19:11:00,
2013-04-30 13:21:00,33.0,33.0,-100.00,SE,140,11.0,21.0,99,-99.99,,,-99.99,,2013-04-30 19:21:00,
2013-04-30 13:32:00,34.0,34.0,-100.00,SE,135,12.0,17.0,99,-99.99,,,-99.99,,2013-04-30 19:32:00,
2013-04-30 13:42:00,34.0,34.0,-100.00,SE,130,14.0,17.0,99,-99.99,,,-99.99,,2013-04-30 19:42:00,
2013-04-30 13:52:00,34.0,34.0,-100.00,SE,135,17.0,21.0,99,-99.99,,,-99.99,,2013-04-30 19:52:00,
2013-04-30 14:02:00,34.0,34.0,-100.00,SE,130,16.0,20.0,99,-99.99,,,-99.99,,2013-04-30 20:02:00,
2013-04-30 14:11:00,34.0,34.0,-100.00,SE,135,12.0,18.0,99,-99.99,,,-99.99,,2013-04-30 20:11:00,
2013-04-30 14:21:00,34.0,34.0,-100.00,ESE,115,12.0,15.0,99,-99.99,,,-99.99,,2013-04-30 20:21:00,
2013-04-30 14:32:00,34.0,34.0,-100.00,ESE,115,14.0,17.0,99,-99.99,,,-99.99,,2013-04-30 20:32:00,
2013-04-30 14:42:00,34.0,34.0,-100.00,SE,140,12.0,19.0,99,-99.99,,,-99.99,,2013-04-30 20:42:00,
2013-04-30 14:52:00,34.0,34.0,-100.00,SE,145,12.0,18.0,99,-99.99,,,-99.99,,2013-04-30 20:52:00,
2013-04-30 15:01:00,34.0,34.0,-100.00,ESE,120,12.0,17.0,99,-99.99,,,-99.99,,2013-04-30 21:01:00,
2013-04-30 15:11:00,35.0,35.0,-100.00,ESE,105,11.0,16.0,99,-99.99,,,-99.99,,2013-04-30 21:11:00,
2013-04-30 15:22:00,35.0,35.0,-100.00,ESE,115,12.0,14.0,99,-99.99,,,-99.99,,2013-04-30 21:22:00,
2013-04-30 15:32:00,34.0,34.0,-100.00,ESE,120,14.0,17.0,99,-99.99,,,-99.99,,2013-04-30 21:32:00,
2013-04-30 15:42:00,34.0,34.0,-100.00,SE,135,14.0,18.0,99,-99.99,,,-99.99,,2013-04-30 21:42:00,
2013-04-30 15:52:00,34.0,34.0,-100.00,SE,135,14.0,21.0,99,-99.99,,,-99.99,,2013-04-30 21:52:00,
2013-04-30 16:02:00,33.0,33.0,-100.00,SE,125,17.0,21.0,99,-99.99,,,-99.99,,2013-04-30 22:02:00,
2013-04-30 16:12:00,33.0,33.0,-100.00,ESE,120,12.0,20.0,99,-99.99,,,-99.99,,2013-04-30 22:12:00,
2013-04-30 16:22:00,33.0,33.0,-100.00,ESE,120,11.0,17.0,99,-99.99,,,-99.99,,2013-04-30 22:22:00,
2013-04-30 16:32:00,33.0,33.0,-100.00,SE,125,12.0,14.0,99,-99.99,,,-99.99,,2013-04-30 22:32:00,
2013-04-30 16:41:00,33.0,33.0,-100.00,ESE,110,10.0,12.0,99,-99.99,,,-99.99,,2013-04-30 22:41:00,
2013-04-30 16:52:00,32.0,32.0,-100.00,ESE,115,11.0,12.0,99,-99.99,,,-99.99,,2013-04-30 22:52:00,
2013-04-30 17:02:00,32.0,32.0,-100.00,ESE,115,11.0,13.0,99,-99.99,,,-99.99,,2013-04-30 23:02:00,
2013-04-30 17:12:00,32.0,32.0,-100.00,ESE,115,12.0,14.0,99,-99.99,,,-99.99,,2013-04-30 23:12:00,
2013-04-30 17:21:00,32.0,32.0,-100.00,ESE,110,12.0,16.0,99,-99.99,,,-99.99,,2013-04-30 23:21:00,
2013-04-30 17:32:00,32.0,32.0,-100.00,ESE,120,11.0,14.0,99,-99.99,,,-99.99,,2013-04-30 23:32:00,
2013-04-30 17:42:00,32.0,32.0,-100.00,ESE,115,9.0,12.0,99,-99.99,,,-99.99,,2013-04-30 23:42:00,
2013-04-30 17:52:00,32.0,32.0,-100.00,North,10,7.0,9.0,99,-99.99,,,-99.99,,2013-04-30 23:52:00,
2013-04-30 18:02:00,32.0,32.0,-100.00,NE,50,6.0,9.0,99,-99.99,,,-99.99,,2013-05-01 00:02:00,
2013-04-30 18:11:00,32.0,32.0,-100.00,ENE,60,8.0,10.0,99,-99.99,,,-99.99,,2013-05-01 00:11:00,
2013-04-30 18:21:00,32.0,32.0,-100.00,ENE,65,9.0,11.0,99,-99.99,,,-99.99,,2013-05-01 00:21:00,
2013-04-30 18:32:00,32.0,32.0,-100.00,NE,35,8.0,9.0,99,-99.99,,,-99.99,,2013-05-01 00:32:00,
2013-04-30 18:42:00,32.0,32.0,-100.00,NNE,15,9.0,12.0,99,-99.99,,,-99.99,,2013-05-01 00:42:00,
2013-04-30 18:51:00,32.0,32.0,-100.00,North,0,9.0,12.0,99,-99.99,,,-99.99,,2013-05-01 00:51:00,
2013-04-30 19:01:00,32.0,32.0,-100.00,NNW,330,10.0,12.0,99,-99.99,,,-99.99,,2013-05-01 01:01:00,
2013-04-30 19:11:00,31.0,31.0,-100.00,NNW,335,7.0,10.0,99,-99.99,,,-99.99,,2013-05-01 01:11:00,
2013-04-30 19:21:00,31.0,31.0,-100.00,NNE,15,13.0,16.0,99,-99.99,,,-99.99,,2013-05-01 01:21:00,
2013-04-30 19:31:00,31.0,31.0,-100.00,NNE,20,9.0,12.0,99,-99.99,,,-99.99,,2013-05-01 01:31:00,
2013-04-30 19:41:00,31.0,31.0,-100.00,North,0,9.0,10.0,99,-99.99,,,-99.99,,2013-05-01 01:41:00,
2013-04-30 19:52:00,31.0,31.0,-100.00,North,355,9.0,11.0,99,-99.99,,,-99.99,,2013-05-01 01:52:00,
2013-04-30 20:02:00,31.0,31.0,-100.00,NW,325,7.0,9.0,99,-99.99,,,-99.99,,2013-05-01 02:02:00,
2013-04-30 20:11:00,31.0,31.0,-100.00,NW,305,6.0,7.0,99,-99.99,,,-99.99,,2013-05-01 02:11:00,
2013-04-30 20:21:00,31.0,31.0,-100.00,NW,315,7.0,9.0,99,-99.99,,,-99.99,,2013-05-01 02:21:00,
2013-04-30 20:32:00,31.0,31.0,-100.00,NW,325,7.0,10.0,99,-99.99,,,-99.99,,2013-05-01 02:32:00,
2013-04-30 20:42:00,31.0,31.0,-100.00,NW,310,6.0,9.0,99,-99.99,,,-99.99,,2013-05-01 02:42:00,
2013-04-30 20:51:00,31.0,31.0,-100.00,NW,315,11.0,13.0,99,-99.99,,,-99.99,,2013-05-01 02:51:00,
2013-04-30 21:01:00,31.0,31.0,-100.00,WNW,300,7.0,13.0,99,-99.99,,,-99.99,,2013-05-01 03:01:00,
2013-04-30 21:11:00,31.0,31.0,-100.00,WNW,285,9.0,11.0,99,-99.99,,,-99.99,,2013-05-01 03:11:00,
2013-04-30 21:21:00,31.0,31.0,-100.00,West,275,13.0,15.0,99,-99.99,,,-99.99,,2013-05-01 03:21:00,
2013-04-30 21:33:00,31.0,31.0,-100.00,West,275,11.0,14.0,99,-99.99,,,-99.99,,2013-05-01 03:33:00,
2013-04-30 21:42:00,31.0,31.0,-100.00,NW,320,6.0,12.0,99,-99.99,,,-99.99,,2013-05-01 03:42:00,
2013-04-30 21:52:00,31.0,31.0,-100.00,North,5,4.0,9.0,99,-99.99,,,-99.99,,2013-05-01 03:52:00,
2013-04-30 22:03:00,31.0,31.0,-100.00,NNW,345,1.0,2.0,99,-99.99,,,-99.99,,2013-05-01 04:03:00,
2013-04-30 22:12:00,31.0,31.0,-100.00,North,350,0.0,2.0,99,-99.99,,,-99.99,,2013-05-01 04:12:00,
2013-04-30 22:22:00,31.0,31.0,-100.00,SE,125,6.0,9.0,99,-99.99,,,-99.99,,2013-05-01 04:22:00,
2013-04-30 22:32:00,30.0,30.0,-100.00,East,100,7.0,11.0,99,-99.99,,,-99.99,,2013-05-01 04:32:00,
2013-04-30 22:42:00,30.0,30.0,-100.00,ESE,115,7.0,10.0,99,-99.99,,,-99.99,,2013-05-01 04:42:00,
2013-04-30 22:52:00,30.0,30.0,-100.00,SE,135,0.0,7.0,99,-99.99,,,-99.99,,2013-05-01 04:52:00,
2013-04-30 23:02:00,31.0,31.0,-100.00,SE,135,4.0,4.0,99,-99.99,,,-99.99,,2013-05-01 05:02:00,
2013-04-30 23:11:00,30.0,30.0,-100.00,WNW,290,1.0,6.0,99,-99.99,,,-99.99,,2013-05-01 05:11:00,
2013-04-30 23:21:00,28.0,28.0,-100.00,ENE,60,8.0,12.0,99,-99.99,,,-99.99,,2013-05-01 05:21:00,
2013-04-30 23:32:00,27.0,27.0,-100.00,NE,55,9.0,10.0,99,-99.99,,,-99.99,,2013-05-01 05:32:00,
2013-04-30 23:41:00,27.0,27.0,-100.00,NE,45,8.0,10.0,99,-99.99,,,-99.99,,2013-05-01 05:41:00,
2013-04-30 23:52:00,26.0,26.0,-100.00,NE,35,10.0,13.0,99,-99.99,,,-99.99,,2013-05-01 05:52:00,